Location: Makakahi
(40.6833°S, 175.6000°E)
Time: 00:07:06
(UTC+00:00)

FENGYUN 1C DEB - Pass Details

Date: 10 December 2024
Orbit: 812 x 877 km, 98.8° (Epoch: 19 January)

Event Time Altitude Azimuth Distance (km) Brightness Sun altitude
Rises 09:34:27 0° 172° (S) 3,383 ? -16.7°
Reaches altitude 10° 09:36:51 10° 177° (S) 2,449 ? -17.0°
Maximum altitude 09:42:05 51° 251° (WSW) 1,047 ? -17.6°
Drops below altitude 10° 09:47:19 10° 325° (NW) 2,456 ? -18.2°
Enters shadow 09:49:33 - 330° (NNW) 3,318 ? -18.4°
